Stations météo

réclame
Mon MeteoGroup
Mierkenis, Suède (2121): Température de l'air & dewpoint: 14.10.2017 16:00:00 - 20.10.2017 16:00:00 (CEST)Mierkenis, Suède (2121): Vitesse du vent & gusts: 14.10.2017 16:00:00 - 20.10.2017 16:00:00 (CEST)Mierkenis, Suède (2121): Direction du vent: 14.10.2017 16:00:00 - 20.10.2017 16:00:00 (CEST)Mierkenis, Suède (2121): reduced air pressure: 14.10.2017 16:00:00 - 20.10.2017 16:00:00 (CEST)Mierkenis, Suède (2121): visibility: 14.10.2017 16:00:00 - 20.10.2017 16:00:00 (CEST)Mierkenis, Suède (2121): Quantités de précipitations: 14.10.2017 16:00:00 - 20.10.2017 16:00:00 (CEST)
Date & Time tt [°C] td [°C] ff [km/h] ff [knt] fx [km/h] fx [knt] dd ppp [hPa] vv [km] rr [mm]
20.10.2017 16:00:00 - - - - - - - - - -
20.10.2017 15:00:00 -0,7 -3,6 14 8 22 12 SE 1025,6 50 0,0
20.10.2017 14:00:00 -1,0 -3,0 10 6 18 10 SE 1025,7 8 0,0
20.10.2017 13:00:00 -1,6 -3,9 7 4 12 7 SSE 1025,8 50 0,0
20.10.2017 12:00:00 -2,2 -4,2 6 3 10 5 SE 1025,9 50 0,0
20.10.2017 11:00:00 -3,6 -4,4 0 0 7 4 N 1025,8 50 0,0
20.10.2017 10:00:00 -5,7 -6,6 4 2 9 5 NW 1025,9 50 0,0
20.10.2017 09:00:00 -6,9 -7,8 6 3 9 5 NNW 1025,3 50 0,0
20.10.2017 08:00:00 -6,6 -7,1 6 3 11 6 WNW 1024,9 0,7 0,0
20.10.2017 07:00:00 -5,5 -6,5 8 4 13 7 WNW 1024,4 50 0,0
20.10.2017 06:00:00 -5,1 -6,1 4 2 13 7 N 1024,1 50 0,0
20.10.2017 05:00:00 -4,0 -5,1 8 4 13 7 NNW 1023,3 50 0,0
20.10.2017 04:00:00 -4,1 -5,2 6 3 14 8 WNW 1023,2 50 0,0
20.10.2017 03:00:00 -3,8 -5,5 6 3 14 8 NW 1023,0 50 0,0
20.10.2017 02:00:00 -3,5 -4,8 6 3 28 15 WSW 1022,6 50 0,0
20.10.2017 01:00:00 -1,5 -4,2 2 1 29 16 NW 1022,2 50 0,0
20.10.2017 00:00:00 -0,8 -3,7 17 9 29 16 NNW 1021,7 50 0,0
19.10.2017 23:00:00 -0,5 -3,5 13 7 24 13 NW 1021,6 50 0,0
19.10.2017 22:00:00 -0,2 -3,1 15 8 24 13 NW 1021,2 50 0,0
19.10.2017 21:00:00 -0,5 -1,8 16 8 29 16 NW 1021,3 50 0,0
19.10.2017 20:00:00 0,2 -1,2 16 8 31 17 NNW 1020,9 50 0,0
19.10.2017 19:00:00 0,6 -1,2 20 11 31 17 NNW 1020,3 50 0,0
19.10.2017 18:00:00 0,6 -1,0 16 9 31 17 NNW 1020,2 50 0,0
19.10.2017 17:00:00 1,1 -0,8 16 9 29 16 NNW 1019,8 50 0,0
19.10.2017 16:00:00 1,5 -1,6 15 8 31 17 NNW 1019,8 50 0,0
19.10.2017 15:00:00 2,3 -1,1 19 10 34 19 NW 1019,5 50 0,0
19.10.2017 14:00:00 2,6 -0,5 22 12 37 20 NW 1019,3 50 0,0
19.10.2017 13:00:00 2,5 -1,7 18 10 37 20 NW 1018,9 50 0,0
19.10.2017 12:00:00 2,4 -0,9 16 9 33 18 NW 1018,9 48 0,0
19.10.2017 11:00:00 2,2 -1,2 14 8 31 17 NW 1018,6 46 0,0
19.10.2017 10:00:00 1,1 -1,3 15 8 31 17 NW 1018,5 45 0,0
19.10.2017 09:00:00 0,2 -1,4 16 8 26 14 NNW 1017,9 43 0,0
19.10.2017 08:00:00 -0,6 -2,5 9 5 17 9 NNW 1017,9 41 0,0
19.10.2017 07:00:00 -1,2 -3,4 4 2 26 14 SE 1017,7 49 0,0
19.10.2017 06:00:00 0,0 -3,5 12 6 28 15 NW 1017,0 50 0,0
19.10.2017 05:00:00 0,2 -2,0 13 7 28 15 NW 1016,5 50 0,0
19.10.2017 04:00:00 0,8 -1,9 11 6 35 19 NW 1015,8 50 0,0
19.10.2017 03:00:00 0,9 -1,7 10 5 48 26 NW 1015,6 50 0,0
19.10.2017 02:00:00 1,8 -2,9 26 14 48 26 NW 1014,1 50 0,0
19.10.2017 01:00:00 1,4 -2,4 27 15 44 24 NW 1013,8 50 0,0
19.10.2017 00:00:00 1,3 -0,8 18 10 33 18 NW 1013,7 39 0,0
18.10.2017 23:00:00 1,7 -0,9 20 11 33 18 NW 1013,0 50 0,0
18.10.2017 22:00:00 1,7 -0,7 14 8 31 17 NW 1012,6 50 0,0
18.10.2017 21:00:00 1,7 -0,7 14 8 28 15 NW 1011,8 50 0,0
18.10.2017 20:00:00 1,4 -0,7 11 6 37 20 NW 1011,2 50 0,0
18.10.2017 19:00:00 1,4 -0,5 14 8 42 23 NW 1010,2 50 0,0
18.10.2017 18:00:00 1,2 -0,3 17 9 42 23 NW 1009,6 22 0,0
18.10.2017 17:00:00 1,8 -0,1 13 7 26 14 NW 1008,5 50 0,0
18.10.2017 16:00:00 2,5 0,4 12 7 29 16 NNW 1007,4 48 0,0
18.10.2017 15:00:00 2,4 0,1 10 5 29 16 N 1006,9 50 0,0
18.10.2017 14:00:00 2,7 0,4 16 8 27 15 NNW 1006,0 40 0,0
18.10.2017 13:00:00 3,4 0,1 13 7 28 15 N 1005,2 41 0,0
18.10.2017 12:00:00 2,8 0,4 16 9 28 15 N 1004,5 48 0,0
18.10.2017 11:00:00 3,8 0,5 10 5 32 18 NW 1003,5 30 0,0
18.10.2017 10:00:00 2,0 -0,1 17 9 32 18 WNW 1003,0 49 0,0
18.10.2017 09:00:00 1,6 -0,3 15 8 32 17 N 1002,1 38 0,0
18.10.2017 08:00:00 1,3 -0,2 18 10 34 18 NNW 1001,1 44 0,0
18.10.2017 07:00:00 1,6 0,0 17 9 34 18 NNW 1000,1 50 0,0
18.10.2017 06:00:00 1,4 -0,1 19 11 31 17 NNW 999,6 50 0,0
18.10.2017 05:00:00 1,3 -0,5 13 7 19 11 NW 999,3 50 0,0
18.10.2017 04:00:00 0,9 -0,9 11 6 16 8 WNW 998,9 50 0,0
18.10.2017 03:00:00 0,4 -1,4 2 1 10 6 S 998,7 50 0,0
18.10.2017 02:00:00 0,6 -1,2 4 2 10 6 NE 999,0 50 0,0
18.10.2017 01:00:00 0,2 -1,2 6 3 10 6 WSW 999,0 50 0,0
18.10.2017 00:00:00 0,3 -1,1 5 3 8 5 SSE 999,3 50 0,0
17.10.2017 23:00:00 0,8 -1,1 3 1 10 5 E 999,4 50 0,0
17.10.2017 22:00:00 0,7 -1,4 4 2 23 12 W 999,7 50 0,0
17.10.2017 21:00:00 2,0 -1,1 6 4 24 13 N 999,4 50 0,0
17.10.2017 20:00:00 1,7 -0,9 16 9 24 13 NNW 999,3 50 0,0
17.10.2017 19:00:00 2,0 -0,6 11 6 17 9 NNW 999,7 50 0,0
17.10.2017 18:00:00 2,4 -0,4 7 4 14 8 NW 1000,0 50 0,0
17.10.2017 17:00:00 2,9 0,0 5 3 12 6 NNW 1000,3 50 0,0
17.10.2017 16:00:00 2,9 -0,6 4 2 17 9 ENE 1000,8 50 0,0
17.10.2017 15:00:00 4,8 0,0 5 3 17 9 W 1000,9 50 0,0
17.10.2017 14:00:00 3,3 -0,3 6 3 22 12 NW 1001,5 50 0,0
17.10.2017 13:00:00 3,7 -0,1 8 4 26 14 NW 1001,6 50 0,0
17.10.2017 12:00:00 4,7 0,5 14 8 26 14 W 1001,8 50 0,0
17.10.2017 11:00:00 4,3 0,3 9 5 24 13 W 1002,3 47 0,0
17.10.2017 10:00:00 2,8 0,2 5 3 16 9 W 1003,0 50 0,0
17.10.2017 09:00:00 1,5 -0,3 8 4 21 11 W 1003,3 50 0,0
17.10.2017 08:00:00 1,8 -0,1 6 3 22 12 NNW 1003,3 17 0,0
17.10.2017 07:00:00 1,5 0,2 8 4 23 12 WNW 1003,4 50 0,0
17.10.2017 06:00:00 1,2 0,3 11 6 25 14 NW 1003,2 50 0,0
17.10.2017 05:00:00 1,6 0,4 14 7 25 14 NW 1002,9 50 0,0
17.10.2017 04:00:00 2,0 0,5 14 7 25 14 NW 1003,1 43 0,0
17.10.2017 03:00:00 1,9 0,6 12 7 27 15 NW 1003,1 50 0,0
17.10.2017 02:00:00 1,7 0,5 14 8 41 22 NW 1003,1 14 0,0
17.10.2017 01:00:00 1,8 0,6 18 10 42 23 NW 1002,8 12 0,1
17.10.2017 00:00:00 2,1 0,6 23 12 42 23 NW 1002,0 13 0,6
16.10.2017 23:00:00 1,0 0,1 22 12 31 17 NW 1001,7 3,6 1,0
16.10.2017 22:00:00 0,5 0,1 16 9 37 20 NNW 1001,5 2,1 2,5
16.10.2017 21:00:00 1,2 0,6 17 9 48 26 NW 1000,6 6 2,2
16.10.2017 20:00:00 1,4 0,5 18 10 66 36 NW 1000,0 9 2,1
16.10.2017 19:00:00 2,1 0,3 23 13 66 36 WNW 999,7 11 0,9
16.10.2017 18:00:00 2,4 0,1 26 14 55 30 NW 999,3 38 0,8
16.10.2017 17:00:00 2,0 0,4 29 16 56 30 NW 998,9 12 1,2
16.10.2017 16:00:00 1,7 0,2 28 15 54 29 NW 998,4 4,8 0,2
16.10.2017 15:00:00 1,9 0,7 26 14 53 29 NW 998,0 8 0,8
16.10.2017 14:00:00 2,0 1,0 29 16 53 29 NW 997,1 6 0,9
16.10.2017 13:00:00 2,3 1,3 29 16 55 30 NW 996,3 11 1,1
16.10.2017 12:00:00 2,5 1,8 31 17 55 30 NW 995,1 12 1,5
16.10.2017 11:00:00 2,4 1,4 27 15 61 33 NW 993,7 4,5 0,9
16.10.2017 10:00:00 2,2 1,2 29 15 67 36 NW 991,9 10 0,7
16.10.2017 09:00:00 2,3 1,1 36 20 69 37 NW 989,7 7 1,8
16.10.2017 08:00:00 3,5 2,9 15 8 45 25 SSW 986,5 7 1,3
16.10.2017 07:00:00 3,1 2,8 29 16 44 24 SE 986,2 9 1,8
16.10.2017 06:00:00 2,4 2,0 27 15 46 25 ESE 988,1 10 0,3
16.10.2017 05:00:00 1,2 0,9 22 12 46 25 ESE 991,3 6 1,3
16.10.2017 04:00:00 1,1 0,7 28 15 46 25 SE 993,2 6 1,8
16.10.2017 03:00:00 1,9 1,5 24 13 46 25 SE 995,3 5 2,4
16.10.2017 02:00:00 2,4 2,0 21 11 41 22 SE 996,6 6 1,4
16.10.2017 01:00:00 2,2 1,8 23 12 34 18 SE 998,6 8 0,9
16.10.2017 00:00:00 2,2 1,5 16 9 29 16 ESE 1000,8 16 0,4
15.10.2017 23:00:00 3,0 1,0 16 9 26 14 ESE 1002,6 24 0,0
15.10.2017 22:00:00 3,2 0,9 14 7 26 14 E 1003,8 50 0,0
15.10.2017 21:00:00 3,3 0,7 8 5 16 9 ESE 1004,3 50 0,0
15.10.2017 20:00:00 3,0 0,6 10 5 27 15 SSE 1005,7 50 0,0
15.10.2017 19:00:00 2,9 1,0 8 4 27 15 SE 1005,9 50 0,0
15.10.2017 18:00:00 4,0 1,5 12 7 21 12 E 1005,9 50 0,0
15.10.2017 17:00:00 4,2 0,9 9 5 23 12 ESE 1005,9 50 0,0
15.10.2017 16:00:00 4,8 1,6 3 2 26 14 NNE 1006,7 50 0,0
15.10.2017 15:00:00 5,2 0,2 16 9 26 14 SW 1006,3 50 0,0
15.10.2017 14:00:00 6,1 1,0 7 4 24 13 SE 1006,1 50 0,0
15.10.2017 13:00:00 6,3 1,6 14 8 24 13 S 1006,0 46 0,0
15.10.2017 12:00:00 4,8 1,3 6 4 13 7 SSE 1006,2 50 0,0
15.10.2017 11:00:00 4,7 1,5 8 4 13 7 SE 1005,8 50 0,0
15.10.2017 10:00:00 3,0 1,5 7 4 12 6 E 1006,1 47 0,0
15.10.2017 09:00:00 1,5 0,6 6 3 21 11 SE 1005,7 50 0,0
15.10.2017 08:00:00 1,8 0,8 5 3 21 11 E 1005,2 50 0,0
15.10.2017 07:00:00 1,1 0,7 5 3 15 8 S 1004,9 50 0,0
15.10.2017 06:00:00 1,4 1,0 4 2 15 8 ESE 1004,5 50 0,0
15.10.2017 05:00:00 2,1 1,5 4 2 14 8 SSE 1004,0 50 0,0
15.10.2017 04:00:00 2,2 1,5 6 4 16 9 E 1003,4 50 0,0
15.10.2017 03:00:00 1,4 1,0 10 5 19 10 SSE 1003,2 50 0,0
15.10.2017 02:00:00 1,7 1,4 7 4 19 10 SE 1003,0 35 0,0
15.10.2017 01:00:00 1,9 1,6 11 6 19 10 SSE 1002,5 50 0,0
15.10.2017 00:00:00 2,3 1,7 11 6 20 11 E 1002,1 50 0,0
14.10.2017 23:00:00 2,4 1,7 14 8 20 11 ESE 1002,1 6 0,0
14.10.2017 22:00:00 2,4 1,7 13 7 21 11 ESE 1002,1 11 0,0
14.10.2017 21:00:00 2,3 1,4 13 7 21 11 ESE 1002,1 43 0,0
14.10.2017 20:00:00 2,2 1,5 10 5 22 12 E 1002,1 15 0,0
14.10.2017 19:00:00 2,0 1,3 14 8 22 12 ESE 1002,2 50 0,0
14.10.2017 18:00:00 2,0 1,1 14 7 28 15 ESE 1002,2 44 0,0
14.10.2017 17:00:00 1,8 0,9 12 6 28 15 ESE 1002,2 50 0,0
14.10.2017 16:00:00 1,8 0,8 14 8 22 12 ESE 1002,3 50 0,0

tt = Température de l'air
td = dewpoint
ff = Vitesse du vent
fx = gusts
dd = Direction du vent
ppp = reduced air pressure
vv = visibility
rr = Quantités de précipitations

stations d'obs. à proximité